Regional Weather Roundup
Issued by NWS

Home | Current Version | Previous Version | Graphics & Text | Print | Product List | Glossary On
Versions: 1 2 3 4 5 6 7 8 9 10 11 12 13 14 15 16 17 18 19 20 21 22 23 24 25 26 27 28 29 30 31 32 33 34 35 36 37 38 39 40 41 42 43 44 45 46 47 48 49 50
000
ASUS43 KMKX 281210
RWRWI

WISCONSIN REGIONAL WEATHER ROUNDUP
NATIONAL WEATHER SERVICE MILWAUKEE/SULLIVAN WI
600 AM CST SAT FEB 28 2015

NOTE: "FAIR" INDICATES FEW OR NO CLOUDS BELOW 12,000 FEET WITH NO
SIGNIFICANT WEATHER AND/OR OBSTRUCTIONS TO VISIBILITY.

WIZ001-002-006>008-014>016-023>028-281300-
NORTHWEST WISCONSIN

CITY           SKY/WX    TMP DP  RH WIND       PRES   REMARKS
SUPERIOR ARPT  PTCLDY    -1  -5  84 SW6       30.49S WCI -13
6HR MIN TEMP:  -1; 6HR MAX TEMP:   6;

ASHLAND        CLEAR     -1  -5  82 S6        30.50S WCI -13
6HR MIN TEMP:  -1; 6HR MAX TEMP:   7;

HAYWARD        PTCLDY   -14 -19  79 CALM      30.48R
6HR MIN TEMP: -14; 6HR MAX TEMP:  -5;

SIREN          PTCLDY    -6 -10  81 CALM      30.50S
6HR MIN TEMP:  -8; 6HR MAX TEMP:   5;

CUMBERLAND     MOCLDY    -6 -11  77 S5        30.49S WCI -17
RICE LAKE      MOCLDY    -8 -12  80 CALM      30.53S
6HR MIN TEMP: -12; 6HR MAX TEMP:   1;

CHETEK         MOCLDY   -13 -17  79 CALM      30.53S
6HR MIN TEMP: -13; 6HR MAX TEMP:  -1;

LADYSMITH      PTCLDY    -8 -13  81 CALM      30.53R
6HR MIN TEMP:  -9; 6HR MAX TEMP:   1;

EAU CLAIRE     MOCLDY    -6 -12  75 S3        30.56R
6HR MIN TEMP:  -7; 6HR MAX TEMP:   1;

MENOMONIE      MOCLDY    -3  -7  82 E3        30.56S
6HR MIN TEMP:  -3; 6HR MAX TEMP:   3;

NEW RICHMOND   CLEAR     -3  -7  83 S6        30.52S WCI -15
6HR MIN TEMP:  -5; 6HR MAX TEMP:   2;

OSCEOLA        PTCLDY    -3  -6  84 S5        30.55S WCI -13
6HR MIN TEMP:  -3; 6HR MAX TEMP:   1;

$$

WIZ003>005-009-010-017-018-281300-
NORTH CENTRAL WISCONSIN

CITY           SKY/WX    TMP DP  RH WIND       PRES   REMARKS
MANITOWISH WTR PTCLDY   -13 -18  80 SW3       30.44S
6HR MIN TEMP: -19; 6HR MAX TEMP:  -2;

ARBOR VITAE    FAIR     -12 -18  75 CALM      30.45S
6HR MIN TEMP: -12; 6HR MAX TEMP:  -3;

WOODRUFF       FAIR     -12 -18  75 CALM      30.45S
6HR MIN TEMP: -12; 6HR MAX TEMP:  -3;

RHINELANDER    PTCLDY   -12 -16  82 CALM      30.46S
6HR MIN TEMP: -15; 6HR MAX TEMP:  -2;

EAGLE RIVER    PTCLDY   -12 -18  75 CALM      30.45R
6HR MIN TEMP: -14; 6HR MAX TEMP:  -2;

LAND O LAKES   PTCLDY   -21 -28  72 CALM      30.45R
6HR MIN TEMP: -21; 6HR MAX TEMP:  -8;

PHILLIPS       PTCLDY   -12 -17  80 CALM      30.47R
6HR MIN TEMP: -13; 6HR MAX TEMP:   1;

TOMAHAWK       PTCLDY   -19 -25  73 CALM      30.50R
6HR MIN TEMP: -19; 6HR MAX TEMP:  -5;

MEDFORD        MOCLDY    -9 -13  83 SW3       30.49S
6HR MIN TEMP: -10; 6HR MAX TEMP:  -1;

MERRILL        PTCLDY   -20 -26  72 CALM      30.51S
6HR MIN TEMP: -20; 6HR MAX TEMP: -10;

$$

WIZ029-030-035-036-043>047-281300-
CENTRAL WISCONSIN

CITY           SKY/WX    TMP DP  RH WIND       PRES   REMARKS
WAUSAU         PTCLDY    -7  -9  91 S3        30.53R
6HR MIN TEMP:  -7; 6HR MAX TEMP:   3;

MOSINEE        CLEAR     -9 -11  92 S5        30.54R WCI -21
MARSHFIELD     PTCLDY    -7 -12  79 SW7       30.54R WCI -21
6HR MIN TEMP:  -9; 6HR MAX TEMP:   0;

STEVENS POINT  PTCLDY    -9 -13  83 CALM      30.57S
6HR MIN TEMP: -10; 6HR MAX TEMP:   3;

WAUPACA        PTCLDY    -3  -9  75 CALM      30.61S
6HR MIN TEMP:  -3; 6HR MAX TEMP:   5;

WAUTOMA        PTCLDY   -14 -21  70 CALM      30.63R
6HR MIN TEMP: -14; 6HR MAX TEMP:  -3;

WISC RAPIDS    PTCLDY   -10 -16  74 SW3       30.60R
6HR MIN TEMP: -11; 6HR MAX TEMP:   2;

CAMP DOUGLAS   PTCLDY   -12 -15  86 CALM      30.60R
6HR MIN TEMP: -13; 6HR MAX TEMP:   1;

$$

WIZ011>013-019>022-031-037>040-048>050-281300-
NORTHEAST WISCONSIN

CITY           SKY/WX    TMP DP  RH WIND       PRES   REMARKS
ANTIGO         PTCLDY   -12 -15  86 CALM      30.50R
6HR MIN TEMP: -13; 6HR MAX TEMP:  -1;

SHAWANO        PTCLDY     0  -7  73 CALM      30.59S
6HR MIN TEMP:   0; 6HR MAX TEMP:   8;

OCONTO         CLEAR     -7 -11  83 CALM      30.61S
6HR MIN TEMP:  -7; 6HR MAX TEMP:   4;

STURGEON BAY   CLEAR      1  -8  66 SW8       30.61R WCI -12
6HR MIN TEMP:   1; 6HR MAX TEMP:   7;

GREEN BAY      CLEAR      1  -6  72 SW7       30.62R WCI -12
6HR MIN TEMP:   1; 6HR MAX TEMP:   8;

MANITOWOC      CLEAR      2  -4  76 W9        30.64R WCI -13
6HR MIN TEMP:   2; 6HR MAX TEMP:   7;

APPLETON       CLEAR      0  -9  65 SW8       30.60R WCI -15
CLINTONVILLE   PTCLDY    -2  -8  78 SW6       30.59S WCI -14
OSHKOSH        PTCLDY    -2  -9  72 SW5       30.62R WCI -12
6HR MIN TEMP:  -5; 6HR MAX TEMP:   5;

$$

WIZ032>034-041-042-053>061-281300-
SOUTHWEST WISCONSIN

CITY           SKY/WX    TMP DP  RH WIND       PRES   REMARKS
LA CROSSE      PTCLDY    -8 -13  78 S5        30.64R WCI -19
6HR MIN TEMP:  -8; 6HR MAX TEMP:   1;

SPARTA         PTCLDY   -17 -22  76 CALM      30.62R
6HR MIN TEMP: -17; 6HR MAX TEMP:  -9;

VIROQUA        PTCLDY    -6  -9  86 SW6       30.56R WCI -18
6HR MIN TEMP:  -7; 6HR MAX TEMP:  -2;

BOSCOBEL       PTCLDY   -19 -25  73 CALM      30.67R
6HR MIN TEMP: -19; 6HR MAX TEMP:  -7;

PRAIRIE DU CHI PTCLDY   -17 -24  70 CALM      30.67R
6HR MIN TEMP: -17; 6HR MAX TEMP:  -7;

PLATTEVILLE    MOCLDY    -8 -12  82 SE6       30.62R WCI -21
6HR MIN TEMP:  -8; 6HR MAX TEMP:  -2;

$$

WIZ056-057-062-063-064-067-068-281300-
SOUTH CENTRAL WISCONSIN

CITY           SKY/WX    TMP DP  RH WIND       PRES   REMARKS
REEDSBURG      PTCLDY    -7 -11  83 CALM      30.61S
6HR MIN TEMP: -10; 6HR MAX TEMP:   3;

BARABOO/DELLS  PTCLDY    -5 -10  78 CALM      30.61R
6HR MIN TEMP:  -8; 6HR MAX TEMP:   2;

LONE ROCK      PTCLDY   -17 -22  78 CALM      30.66R
6HR MIN TEMP: -17; 6HR MAX TEMP:  -7;

MINERAL POINT  MOCLDY    -4  -8  84 S6        30.59R WCI -16
MADISON        PTCLDY    -8 -14  74 CALM      30.63R
6HR MIN TEMP:  -9; 6HR MAX TEMP:   2;

MIDDLETON      PTCLDY   -12 -18  72 CALM      30.63R
6HR MIN TEMP: -12; 6HR MAX TEMP:   1;

WATERTOWN      PTCLDY    -9 -14  78 CALM      30.64R
6HR MIN TEMP: -10; 6HR MAX TEMP:   1;

MONROE         MOCLDY    -6  -8  92 S6        30.61R WCI -18
JANESVILLE     CLEAR     -8 -15  71 CALM      30.66R
$$

WIZ051-052-058>065-066-070>072-281300-
SOUTHEAST WISCONSIN

CITY           SKY/WX    TMP DP  RH WIND       PRES   REMARKS
MILWAUKEE      PTCLDY    -2 -11  65 SW5       30.67R WCI -12
6HR MIN TEMP:  -3; 6HR MAX TEMP:   4;

WAUKESHA       CLEAR     -4  -9  77 W5        30.65R WCI -15
MILWAUKEE/TIMM CLEAR      0  -8  71 W3        30.66R
RACINE         PTCLDY    -4 -10  75 SW5       30.69R WCI -15
6HR MIN TEMP:  -5; 6HR MAX TEMP:   3;

BURLINGTON     MOCLDY   -16 -21  78 CALM      30.66R
6HR MIN TEMP: -16; 6HR MAX TEMP:  -4;

KENOSHA        PTCLDY   -11 -15  82 W5        30.67R WCI -23
6HR MIN TEMP: -12; 6HR MAX TEMP:   1;

FOND DU LAC    PTCLDY    -5 -10  79 S5        30.63R WCI -16
6HR MIN TEMP:  -5; 6HR MAX TEMP:   4;

SHEBOYGAN      CLEAR      0  -8  69 W6        30.63S WCI -12
6HR MIN TEMP:  -4; 6HR MAX TEMP:   4;

WEST BEND      CLEAR     -2  -8  78 CALM      30.63R
JUNEAU         PTCLDY    -4 -10  74 CALM      30.64R
6HR MIN TEMP:  -5; 6HR MAX TEMP:   1;

$$

LSZ147-162-281300-
LAKE SUPERIOR

STATION/POSITION TIME  TEMP    WIND        PRES    WAVE
                       AIR SEA DIR/SP/G            HT/PER
                 (UTC) (F)     (DEG/KT/KT) (MB)    (FT/S)
DEVILS ISLAND    1200    7     230/ 13/ 17 1033.9R
PORT WING        1100    4     190/  9/ 12 1032.2
SAXON HARBOR     1100    4     190/  6/ 10 1032.8
$$

LMZ867-665-643>646-281300-
LAKE MICHIGAN

STATION/POSITION TIME  TEMP    WIND        PRES    WAVE


USA.gov is the U.S. government's official web portal to all federal, state and local government web resources and services.